Portada
METAR-TAF:

METAR-TAF

Aeroports :

Moose Lake Carlton County Airport

Moose Lake, Minnesota, Estats Units d'Amèrica

latitud: 46-25N, longitud: 092-48W, altitud: 328 m

Observació

L'informe es va fer fa 22 minuts, a les 00:36 UTC
Vent 4 kt del Nord/Nord-Oest
Temperatura -20°C
Humitat 49%
Pressió 1027 hPa
Visibilitat: 16.1 km
Cel ennuvolat a una alçada de 11000 ft

METAR: KMZH 200036Z AUTO 34004KT 10SM BKN110 M20/M28 A3033 RMK AO2

Hora: 18:58 (00:58 UTC)


TAF: manca

Observacions i pronòstics meteorològics de més de 4000 aeroports (METAR i TAF).

Les estacions disponibles són els punts grocs i vermells al mapa.

Posi el ratolí al punt desitjat per veure el nom de l'estació.

Feu clic per veure les observacions i els pronòstics meteorològics.

Per canviar el mapa: feu clic els botons verds amb una creu de color negre per apropar; al botó verd amb un guió per allunyar la imatge; o en les fletxes verdes per a mapes adjacents.


METAR-TAF: